Location: NJAA Observatory
(40.6819°N, 74.8979°W)
Time: 23:40:43
(UTC-04:00)

Iridium 4 - Visible Passes

Search period start: 16 October 2017 00:00
Search period end: 26 October 2017 00:00
Orbit: 773 x 776 km, 86.4° (Epoch: 16 October)

Date Brightness Start Highest point End Pass type
(mag) Time Alt. Az. Time Alt. Az. Time Alt. Az.
16 Oct 7.2 03:59:31 10° NNE 04:04:03 30° E 04:05:05 27° E visible
16 Oct 6.2 05:40:08 10° NNW 05:44:38 30° W 05:45:13 30° W visible
17 Oct 8.2 03:26:06 10° NE 03:28:11 15° ENE 03:28:11 15° ENE visible
17 Oct 6.3 05:05:14 10° N 05:08:28 36° NNW 05:08:28 36° NNW visible
18 Oct 7.2 04:30:41 10° N 04:32:38 23° N 04:32:38 23° N visible
19 Oct 8.0 03:56:27 10° NNE 03:57:10 14° NNE 03:57:10 14° NNE visible
